NEWPRT Weather Reports


Display with metric or nautical units.
time (UTC)temp
F
wind
direction
speed
MPH
gust
MPH
rain 1hr
in
rain 24hr
in
rain mn
in
humidity
%
barometer
mb
20260831220100 0 82 1.0 7.0 0.00 0.00 0.00 16
20260831215537 0 109 3.0 7.0 0.00 0.00 0.00 16
20260831215014 0 91 3.0 8.0 0.00 0.00 0.00 17
20260831214451 0 110 4.0 8.0 0.00 0.00 0.00 15
20260831213928 0 89 3.0 8.0 0.00 0.00 0.00 15
20260831213405 0 110 4.0 7.0 0.00 0.00 0.00 14
20260831212842 0 85 4.0 7.0 0.00 0.00 0.00 14
20260831212319 0 133 3.0 7.0 0.00 0.00 0.00 14
20260831211756 0 102 4.0 7.0 0.00 0.00 0.00 13
20260831211233 0 114 5.0 7.0 0.00 0.00 0.00 13
20260831210710 0 107 4.0 7.0 0.00 0.00 0.00 15
20260831210147 0 91 2.0 7.0 0.00 0.00 0.00 18
20260831205624 0 96 2.0 7.0 0.00 0.00 0.00 18
20260831205101 0 105 3.0 7.0 0.00 0.00 0.00 18
20260831204539 0 96 3.0 7.0 0.00 0.00 0.00 14
20260831204015 0 112 2.0 7.0 0.00 0.00 0.00 15
20260831203452 0 120 1.0 6.0 0.00 0.00 0.00 14
20260831202929 0 82 1.0 6.0 0.00 0.00 0.00 13
20260831202406 0 114 2.0 6.0 0.00 0.00 0.00 11
20260831201843 0 29 4.0 6.0 0.00 0.00 0.00 10
20260831201320 0 22 1.0 6.0 0.00 0.00 0.00 10
20260831200757 0 47 1.0 5.0 0.00 0.00 0.00 8
20260831200234 0 16 1.0 5.0 0.00 0.00 0.00 12
20260831195711 0 21 0.0 7.0 0.00 0.00 0.00 13
20260831195149 0 357 1.0 7.0 0.00 0.00 0.00 13
20260831194625 0 44 3.0 7.0 0.00 0.00 0.00 11
20260831194102 0 25 4.0 7.0 0.00 0.00 0.00 11
20260831193539 0 43 5.0 7.0 0.00 0.00 0.00 10
20260831193016 0 25 2.0 6.0 0.00 0.00 0.00 10
20260831192453 0 51 2.0 6.0 0.00 0.00 0.00 11
20260831191930 0 39 1.0 6.0 0.00 0.00 0.00 9
20260831191407 0 50 4.0 4.0 0.00 0.00 0.00 11
20260831190844 0 51 0.0 4.0 0.00 0.00 0.00 13
20260831190321 0 333 0.0 3.0 0.00 0.00 0.00 8
20260831185758 0 26 0.0 6.0 0.00 0.00 0.00 13
20260831185235 0 30 1.0 6.0 0.00 0.00 0.00 13
20260831184713 0 47 2.0 5.0 0.00 0.00 0.00 13
20260831184149 0 35 3.0 6.0 0.00 0.00 0.00 13
20260831183626 0 37 0.0 6.0 0.00 0.00 0.00 15
20260831183103 0 43 1.0 6.0 0.00 0.00 0.00 12
20260831182540 0 70 1.0 4.0 0.00 0.00 0.00 9
20260831182018 0 43 1.0 4.0 0.00 0.00 0.00 7
20260831181454 0 8 1.0 5.0 0.00 0.00 0.00 8
20260831180931 0 44 1.0 5.0 0.00 0.00 0.00 9
20260831180408 0 44 0.0 4.0 0.00 0.00 0.00 13
20260831175845 0 61 1.0 4.0 0.00 0.00 0.00 14
20260831175322 0 33 0.0 3.0 0.00 0.00 0.00 15
20260831174759 0 15 0.0 3.0 0.00 0.00 0.00 16
20260831174236 0 9 0.0 3.0 0.00 0.00 0.00 15
20260831173713 0 341 1.0 3.0 0.00 0.00 0.00 13
20260831173150 0 25 0.0 3.0 0.00 0.00 0.00 16
20260831172627 0 35 0.0 3.0 0.00 0.00 0.00 18
20260831172104 0 43 0.0 3.0 0.00 0.00 0.00 17
20260831171542 0 0 0.0 0.0 0.00 0.00 0.00 18
20260831171018 0 0 0.0 0.0 0.00 0.00 0.00 19
20260831170455 0 0 0.0 2.0 0.00 0.00 0.00 21
20260831165932 0 0 0.0 2.0 0.00 0.00 0.00 21
20260831165409 0 0 1.0 1.0 0.00 0.00 0.00 23
20260831164846 0 0 0.0 0.0 0.00 0.00 0.00 25
20260831164323 0 0 0.0 0.0 0.00 0.00 0.00 26
20260831163800 0 0 0.0 0.0 0.00 0.00 0.00 24
20260831163237 0 0 0.0 0.0 0.00 0.00 0.00 26
20260831162714 0 0 0.0 0.0 0.00 0.00 0.00 26
20260831162151 0 0 0.0 0.0 0.00 0.00 0.00 25
20260831161628 0 0 0.0 0.0 0.00 0.00 0.00 27
20260831161104 0 0 0.0 0.0 0.00 0.00 0.00 25
20260831160542 0 0 0.0 0.0 0.00 0.00 0.00 26
20260831160018 0 163 0.0 0.0 0.00 0.00 0.00 27
20260831155455 0 0 0.0 0.0 0.00 0.00 0.00 26
20260831154932 0 0 0.0 0.0 0.00 0.00 0.00 27
20260831154409 0 0 0.0 0.0 0.00 0.00 0.00 27
20260831153847 0 0 0.0 0.0 0.00 0.00 0.00 27
20260831153323 0 0 0.0 0.0 0.00 0.00 0.00 28
20260831152800 0 0 0.0 0.0 0.00 0.00 0.00 25
20260831152237 0 0 0.0 0.0 0.00 0.00 0.00 23
20260831151714 0 0 0.0 0.0 0.00 0.00 0.00 18
20260831151151 0 0 0.0 0.0 0.00 0.00 0.00 21
20260831150628 0 0 0.0 0.0 0.00 0.00 0.00 20
20260831150105 0 0 0.0 0.0 0.00 0.00 0.00 18
20260831145542 0 0 0.0 0.0 0.00 0.00 0.00 20
20260831145019 0 0 0.0 0.0 0.00 0.00 0.00 21
20260831144457 0 0 0.0 0.0 0.00 0.00 0.00 23
20260831143933 0 0 0.0 0.0 0.00 0.00 0.00 25
20260831143410 0 0 0.0 0.0 0.00 0.00 0.00 25
20260831142847 0 0 0.0 0.0 0.00 0.00 0.00 21
20260831142324 0 0 0.0 0.0 0.00 0.00 0.00 23
20260831141801 0 0 0.0 0.0 0.00 0.00 0.00 30
20260831141238 0 0 0.0 0.0 0.00 0.00 0.00 31
20260831140715 0 0 0.0 0.0 0.00 0.00 0.00 31
20260831140152 0 0 0.0 0.0 0.00 0.00 0.00 31
20260831135629 0 0 0.0 0.0 0.00 0.00 0.00 31
20260831135106 0 0 0.0 0.0 0.00 0.00 0.00 29
20260831134544 0 0 0.0 0.0 0.00 0.00 0.00 31
20260831134020 0 0 0.0 0.0 0.00 0.00 0.00 31
20260831133457 0 0 0.0 0.0 0.00 0.00 0.00 31
20260831132934 0 0 0.0 0.0 0.00 0.00 0.00 31
20260831132411 0 0 0.0 0.0 0.00 0.00 0.00 28
20260831131848 0 0 0.0 0.0 0.00 0.00 0.00 32
20260831131326 0 0 0.0 0.0 0.00 0.00 0.00 32
20260831130802 0 0 0.0 0.0 0.00 0.00 0.00 35
20260831130239 0 0 0.0 0.0 0.00 0.00 0.00 33
20260831125716 0 0 0.0 0.0 0.00 0.00 0.00 35
20260831125154 0 0 0.0 0.0 0.00 0.00 0.00 35
20260831124630 0 0 0.0 0.0 0.00 0.00 0.00 34
20260831124107 0 0 0.0 0.0 0.00 0.00 0.00 33
20260831123545 0 0 0.0 0.0 0.00 0.00 0.00 33
20260831123021 0 0 0.0 0.0 0.00 0.00 0.00 32
20260831122458 0 0 0.0 0.0 0.00 0.00 0.00 31
20260831121936 0 0 0.0 0.0 0.00 0.00 0.00 31
20260831121412 0 0 0.0 0.0 0.00 0.00 0.00 30
20260831120849 0 0 0.0 0.0 0.00 0.00 0.00 30
20260831120327 0 0 0.0 0.0 0.00 0.00 0.00 28
20260831115803 0 0 0.0 0.0 0.00 0.00 0.00 29
20260831115241 0 0 0.0 0.0 0.00 0.00 0.00 30
20260831114717 0 0 0.0 0.0 0.00 0.00 0.00 29
20260831114154 0 0 0.0 0.0 0.00 0.00 0.00 33
20260831113631 0 0 0.0 0.0 0.00 0.00 0.00 32
20260831113108 0 0 0.0 0.0 0.00 0.00 0.00 31
20260831112545 0 0 0.0 0.0 0.00 0.00 0.00 31
20260831112022 0 0 0.0 0.0 0.00 0.00 0.00 32
20260831111459 0 0 0.0 0.0 0.00 0.00 0.00 31
20260831110936 0 0 0.0 0.0 0.00 0.00 0.00 32
20260831110413 0 0 0.0 0.0 0.00 0.00 0.00 32
20260831105850 0 0 0.0 0.0 0.00 0.00 0.00 32
20260831105327 0 0 0.0 0.0 0.00 0.00 0.00 33
20260831104805 0 0 0.0 0.0 0.00 0.00 0.00 33
20260831104241 0 0 0.0 0.0 0.00 0.00 0.00 34
20260831103718 0 0 0.0 0.0 0.00 0.00 0.00 35
20260831103155 0 0 0.0 0.0 0.00 0.00 0.00 36
20260831102632 0 0 0.0 0.0 0.00 0.00 0.00 36
20260831102109 0 0 0.0 0.0 0.00 0.00 0.00 36
20260831101546 0 0 0.0 0.0 0.00 0.00 0.00 36
20260831101023 0 0 0.0 0.0 0.00 0.00 0.00 36
20260831100500 0 0 0.0 0.0 0.00 0.00 0.00 36
20260831095937 0 0 0.0 0.0 0.00 0.00 0.00 36
20260831095414 0 0 0.0 0.0 0.00 0.00 0.00 36
20260831094851 0 0 0.0 0.0 0.00 0.00 0.00 37
20260831094329 0 0 0.0 0.0 0.00 0.00 0.00 37
20260831093805 0 0 0.0 0.0 0.00 0.00 0.00 38
20260831093242 0 0 0.0 0.0 0.00 0.00 0.00 39
20260831092719 0 0 0.0 0.0 0.00 0.00 0.00 40
20260831092156 0 0 0.0 0.0 0.00 0.00 0.00 41
20260831091633 0 0 0.0 0.0 0.00 0.00 0.00 40
20260831091110 0 0 0.0 0.0 0.00 0.00 0.00 40
20260831090547 0 0 0.0 0.0 0.00 0.00 0.00 39
20260831090024 0 0 0.0 0.0 0.00 0.00 0.00 40
20260831085501 0 0 0.0 0.0 0.00 0.00 0.00 40
20260831084938 0 0 0.0 0.0 0.00 0.00 0.00 40
20260831084415 0 0 0.0 0.0 0.00 0.00 0.00 38
20260831083852 0 0 0.0 0.0 0.00 0.00 0.00 40
20260831083330 0 0 0.0 0.0 0.00 0.00 0.00 39
20260831082805 0 0 0.0 0.0 0.00 0.00 0.00 39
20260831082243 0 0 0.0 0.0 0.00 0.00 0.00 39
20260831081719 0 0 0.0 0.0 0.00 0.00 0.00 39
20260831081157 0 0 0.0 0.0 0.00 0.00 0.00 39
20260831080633 0 0 0.0 0.0 0.00 0.00 0.00 38
20260831080110 0 0 0.0 0.0 0.00 0.00 0.00 39
20260831075547 0 0 0.0 0.0 0.00 0.00 0.00 38
20260831075025 0 0 0.0 1.0 0.00 0.00 0.00 39
20260831074503 0 0 0.0 1.0 0.00 0.00 0.00 39
20260831073938 0 163 0.0 1.0 0.00 0.00 0.00 41
20260831073415 0 0 0.0 0.0 0.00 0.00 0.00 41
20260831072852 0 0 0.0 0.0 0.00 0.00 0.00 42
20260831072330 0 0 0.0 0.0 0.00 0.00 0.00 43
20260831071806 0 0 0.0 0.0 0.00 0.00 0.00 44
20260831071243 0 0 0.0 0.0 0.00 0.00 0.00 47
20260831070720 0 0 0.0 0.0 0.00 0.00 0.00 49
20260831070157 0 0 0.0 0.0 0.00 0.00 0.00 49
20260831065634 0 0 0.0 0.0 0.00 0.00 0.00 49
20260831065111 0 0 0.0 0.0 0.00 0.00 0.00 50
20260831064548 0 0 0.0 0.0 0.00 0.00 0.00 51
20260831064025 0 0 0.0 0.0 0.00 0.00 0.00 51
20260831063502 0 0 0.0 0.0 0.00 0.00 0.00 52
20260831062939 0 0 0.0 0.0 0.00 0.00 0.00 52
20260831062416 0 0 0.0 0.0 0.00 0.00 0.00 53
20260831061853 0 0 0.0 0.0 0.00 0.00 0.00 52
20260831061331 0 98 0.0 0.0 0.00 0.00 0.00 52
20260831060807 0 0 0.0 3.0 0.00 0.00 0.00 53
20260831060244 0 105 0.0 3.0 0.00 0.00 0.00 54
20260831055721 0 105 0.0 3.0 0.00 0.00 0.00 55
20260831055159 0 0 2.0 3.0 0.00 0.00 0.00 55
20260831054635 0 77 0.0 3.0 0.00 0.00 0.00 57
20260831054112 0 110 0.0 3.0 0.00 0.00 0.00 57
20260831053549 0 117 1.0 5.0 0.00 0.00 0.00 55
20260831053026 0 112 0.0 5.0 0.00 0.00 0.00 56
20260831052503 0 113 0.0 5.0 0.00 0.00 0.00 57
20260831051940 0 107 2.0 7.0 0.00 0.00 0.00 56
20260831051417 0 92 2.0 7.0 0.00 0.00 0.00 58
20260831050854 0 92 5.0 6.0 0.00 0.00 0.00 57
20260831050332 0 99 5.0 6.0 0.00 0.00 0.00 58
20260831045809 0 112 3.0 5.0 0.00 0.00 0.00 66
20260831045245 0 95 1.0 11.0 0.00 0.00 0.00 65
20260831044723 0 99 3.0 11.0 0.00 0.00 0.00 65
20260831044203 0 84 1.0 11.0 0.00 0.00 0.00 65
20260831043636 0 99 3.0 17.0 0.00 0.00 0.00 65
20260831043113 0 37 6.0 17.0 0.00 0.00 0.00 64
20260831042550 0 99 6.0 17.0 0.00 0.00 0.00 64
20260831042027 0 102 7.0 16.0 0.00 0.00 0.00 63
20260831041504 0 88 8.0 16.0 0.00 0.00 0.00 65
20260831040941 0 109 7.0 16.0 0.00 0.00 0.00 63
20260831040418 0 106 7.0 11.0 0.00 0.00 0.00 64
20260831035855 0 103 5.0 11.0 0.00 0.00 0.00 63
20260831035332 0 119 6.0 12.0 0.00 0.00 0.00 62
20260831034809 0 92 3.0 12.0 0.00 0.00 0.00 61
20260831034246 0 77 5.0 18.0 0.00 0.00 0.00 60
20260831033723 0 107 6.0 18.0 0.00 0.00 0.00 59
20260831033200 0 99 5.0 18.0 0.00 0.00 0.00 60
20260831032637 0 82 4.0 12.0 0.00 0.00 0.00 57
20260831032114 0 92 4.0 12.0 0.00 0.00 0.00 57
20260831031551 0 107 5.0 12.0 0.00 0.00 0.00 59
20260831031028 0 100 4.0 11.0 0.00 0.00 0.00 55
20260831030505 0 75 5.0 13.0 0.00 0.00 0.00 58
20260831025942 0 119 4.0 13.0 0.00 0.00 0.00 57
20260831025419 0 68 6.0 13.0 0.00 0.00 0.00 58
20260831024856 0 93 6.0 11.0 0.00 0.00 0.00 45
20260831024333 0 98 6.0 10.0 0.00 0.00 0.00 57
20260831023810 0 121 5.0 13.0 0.00 0.00 0.00 53
20260831023247 0 89 6.0 13.0 0.00 0.00 0.00 53
20260831022724 0 95 5.0 13.0 0.00 0.00 0.00 40
20260831022201 0 110 5.0 12.0 0.00 0.00 0.00 40
20260831021638 0 93 6.0 12.0 0.00 0.00 0.00 42
20260831021115 0 88 4.0 13.0 0.00 0.00 0.00 42
20260831020552 0 100 6.0 13.0 0.00 0.00 0.00 42
20260831020029 0 93 3.0 13.0 0.00 0.00 0.00 42
20260831015506 0 105 5.0 13.0 0.00 0.00 0.00 33
20260831014944 0 93 6.0 13.0 0.00 0.00 0.00 33
20260831014420 0 92 4.0 13.0 0.00 0.00 0.00 34
20260831013857 0 273 5.0 14.0 0.00 0.00 0.00 44
20260831013334 0 93 4.0 14.0 0.00 0.00 0.00 35
20260831012812 0 96 6.0 16.0 0.00 0.00 0.00 31
20260831012248 0 92 3.0 16.0 0.00 0.00 0.00 36
20260831011724 0 54 4.0 16.0 0.00 0.00 0.00 36
20260831011202 0 77 7.0 17.0 0.00 0.00 0.00 33
20260831010640 0 82 3.0 17.0 0.00 0.00 0.00 39
20260831010116 0 92 4.0 17.0 0.00 0.00 0.00 33
20260831005554 0 89 8.0 13.0 0.00 0.00 0.00 28
20260831005029 0 134 4.0 13.0 0.00 0.00 0.00 28
20260831004506 0 82 4.0 13.0 0.00 0.00 0.00 28
20260831003943 0 61 4.0 13.0 0.00 0.00 0.00 28
20260831003420 0 128 4.0 13.0 0.00 0.00 0.00 32
20260831002858 0 109 5.0 12.0 0.00 0.00 0.00 31
20260831002335 0 82 5.0 11.0 0.00 0.00 0.00 30
20260831001812 0 130 4.0 18.0 0.00 0.00 0.00 29
20260831001249 0 85 4.0 18.0 0.00 0.00 0.00 31
20260831000726 0 114 6.0 14.0 0.00 0.00 0.00 31
20260831000204 0 89 7.0 14.0 0.00 0.00 0.00 31
20260830235639 0 131 7.0 14.0 0.00 0.00 0.00 33
20260830235117 0 91 8.0 17.0 0.00 0.00 0.00 33
20260830234553 0 85 5.0 17.0 0.00 0.00 0.00 29
20260830234030 0 93 6.0 17.0 0.00 0.00 0.00 29
20260830233507 0 112 6.0 16.0 0.00 0.00 0.00 30
20260830232944 0 91 8.0 15.0 0.00 0.00 0.00 30
20260830232421 0 93 8.0 15.0 0.00 0.00 0.00 29
20260830231858 0 135 7.0 16.0 0.00 0.00 0.00 28
20260830231336 0 98 7.0 16.0 0.00 0.00 0.00 29
20260830230812 0 98 6.0 16.0 0.00 0.00 0.00 27
20260830230249 0 100 6.0 16.0 0.00 0.00 0.00 27
20260830225726 0 79 5.0 16.0 0.00 0.00 0.00 26
20260830225203 0 81 5.0 14.0 0.00 0.00 0.00 26
20260830224640 0 103 7.0 14.0 0.00 0.00 0.00 28
20260830224117 0 128 6.0 12.0 0.00 0.00 0.00 27
20260830223554 0 93 4.0 14.0 0.00 0.00 0.00 26
20260830223031 0 98 6.0 14.0 0.00 0.00 0.00 25
20260830222508 0 92 6.0 14.0 0.00 0.00 0.00 25
20260830221945 0 93 3.0 16.0 0.00 0.00 0.00 25
20260830221422 0 65 4.0 16.0 0.00 0.00 0.00 24
20260830220859 0 86 7.0 13.0 0.00 0.00 0.00 24